• In Uzbekistan
  • List of Countries
  • For 7 days
  • Water Temperature
  • Weather Map
  • Weather Widgets
  • user-avatar
    Login

    Hourly Weather Nakhchivan

    Today, 6 June, Saturday

    Time Temperature Precipitation Wind Pressure Humidity
    00:00 +24°C° 0 mm 2 mps 690 mmHg 29%
    01:00 +23°C° 0 mm 2 mps 690 mmHg 33%
    02:00 +21°C° 0 mm 2 mps 690 mmHg 36%
    03:00 +21°C° 0 mm 1 mps 690 mmHg 39%
    04:00 +22°C° 0 mm 1 mps 690 mmHg 39%
    05:00 +22°C° 0 mm 1 mps 690 mmHg 40%
    06:00 +21°C° 0 mm 2 mps 691 mmHg 40%
    07:00 +23°C° 0.1 mm 2 mps 691 mmHg 37%
    08:00 +24°C° 0.1 mm 2 mps 691 mmHg 35%
    09:00 +26°C° 0.1 mm 2 mps 691 mmHg 32%
    10:00 +27°C° 0 mm 2 mps 691 mmHg 29%
    11:00 +28°C° 0 mm 2 mps 691 mmHg 26%
    12:00 +29°C° 0 mm 3 mps 691 mmHg 22%
    13:00 +30°C° 0 mm 3 mps 691 mmHg 20%
    14:00 +31°C° 0 mm 3 mps 691 mmHg 18%
    15:00 +31°C° 0 mm 3 mps 690 mmHg 15%
    16:00 +32°C° 0 mm 4 mps 691 mmHg 16%
    17:00 +32°C° 0 mm 4 mps 691 mmHg 17%
    18:00 +30°C° 0 mm 4 mps 691 mmHg 18%
    19:00 +28°C° 0 mm 4 mps 691 mmHg 25%
    20:00 +26°C° 0 mm 3 mps 691 mmHg 33%
    21:00 +24°C° 0 mm 3 mps 691 mmHg 40%
    22:00 +24°C° 0 mm 3 mps 691 mmHg 42%
    23:00 +23°C° 0 mm 2 mps 691 mmHg 44%

    Tomorrow, 7 June, Sunday

    Time Temperature Precipitation Wind Pressure Humidity
    00:00 +21°C° 0 mm 2 mps 691 mmHg 46%
    01:00 +21°C° 0 mm 2 mps 691 mmHg 48%
    02:00 +21°C° 0 mm 1 mps 690 mmHg 50%
    03:00 +20°C° 0 mm 1 mps 690 mmHg 52%
    04:00 +21°C° 0 mm 1 mps 690 mmHg 50%
    05:00 +21°C° 0 mm 1 mps 690 mmHg 48%
    06:00 +22°C° 0 mm 1 mps 691 mmHg 46%
    07:00 +23°C° 0 mm 1 mps 691 mmHg 42%
    08:00 +24°C° 0 mm 1 mps 691 mmHg 38%
    09:00 +26°C° 0 mm 1 mps 691 mmHg 34%
    10:00 +27°C° 0 mm 1 mps 691 mmHg 30%
    11:00 +28°C° 0 mm 1 mps 691 mmHg 26%
    12:00 +30°C° 0 mm 1 mps 690 mmHg 23%
    13:00 +30°C° 0 mm 1 mps 690 mmHg 21%
    14:00 +31°C° 0 mm 2 mps 690 mmHg 20%
    15:00 +32°C° 0 mm 2 mps 690 mmHg 18%
    16:00 +32°C° 0 mm 2 mps 689 mmHg 19%
    17:00 +31°C° 0 mm 3 mps 689 mmHg 21%
    18:00 +32°C° 0 mm 4 mps 689 mmHg 22%
    19:00 +29°C° 0 mm 4 mps 689 mmHg 27%
    20:00 +28°C° 0 mm 3 mps 689 mmHg 31%
    21:00 +26°C° 0 mm 3 mps 689 mmHg 36%
    22:00 +25°C° 0 mm 3 mps 689 mmHg 38%
    23:00 +24°C° 0 mm 3 mps 689 mmHg 39%

    Day after tomorrow, 8 June, Monday

    Time Temperature Precipitation Wind Pressure Humidity
    00:00 +23°C° 0 mm 2 mps 689 mmHg 41%
    01:00 +23°C° 0 mm 2 mps 688 mmHg 41%
    02:00 +21°C° 0 mm 2 mps 688 mmHg 42%
    03:00 +21°C° 0 mm 1 mps 688 mmHg 43%
    04:00 +22°C° 0 mm 1 mps 688 mmHg 41%
    05:00 +22°C° 0 mm 1 mps 688 mmHg 39%
    06:00 +23°C° 0 mm 1 mps 688 mmHg 37%
    07:00 +24°C° 0 mm 1 mps 688 mmHg 33%
    08:00 +26°C° 0 mm 1 mps 688 mmHg 29%
    09:00 +27°C° 0 mm 1 mps 688 mmHg 24%
    10:00 +29°C° 0 mm 1 mps 688 mmHg 20%
    11:00 +30°C° 0 mm 2 mps 688 mmHg 17%
    12:00 +31°C° 0 mm 2 mps 688 mmHg 13%
    13:00 +32°C° 0 mm 2 mps 688 mmHg 13%
    14:00 +34°C° 0 mm 3 mps 688 mmHg 12%
    15:00 +35°C° 0 mm 3 mps 687 mmHg 11%
    16:00 +34°C° 0 mm 4 mps 687 mmHg 13%
    17:00 +34°C° 0 mm 4 mps 687 mmHg 15%
    18:00 +33°C° 0 mm 4 mps 687 mmHg 16%
    19:00 +32°C° 0 mm 4 mps 687 mmHg 21%
    20:00 +29°C° 0 mm 3 mps 687 mmHg 25%
    21:00 +27°C° 0 mm 3 mps 687 mmHg 29%
    22:00 +26°C° 0 mm 3 mps 687 mmHg 30%
    23:00 +25°C° 0 mm 2 mps 687 mmHg 32%

    9 June, Tuesday

    Time Temperature Precipitation Wind Pressure Humidity
    00:00 +24°C° 0 mm 1 mps 686 mmHg 33%
    01:00 +23°C° 0 mm 1 mps 686 mmHg 34%
    02:00 +23°C° 0 mm 1 mps 686 mmHg 35%
    03:00 +22°C° 0 mm 1 mps 686 mmHg 35%
    04:00 +23°C° 0 mm 1 mps 686 mmHg 34%
    05:00 +24°C° 0 mm 1 mps 687 mmHg 33%
    06:00 +22°C° 0 mm 0 mps 687 mmHg 31%
    07:00 +26°C° 0 mm 1 mps 687 mmHg 28%
    08:00 +27°C° 0 mm 1 mps 687 mmHg 25%
    09:00 +29°C° 0 mm 1 mps 688 mmHg 22%
    10:00 +30°C° 0 mm 1 mps 688 mmHg 21%
    11:00 +32°C° 0 mm 1 mps 688 mmHg 19%
    12:00 +33°C° 0 mm 1 mps 688 mmHg 17%
    13:00 +35°C° 0 mm 2 mps 687 mmHg 18%
    14:00 +35°C° 0 mm 2 mps 687 mmHg 18%
    15:00 +36°C° 0 mm 2 mps 687 mmHg 18%
    16:00 +35°C° 0 mm 4 mps 687 mmHg 22%
    17:00 +34°C° 0 mm 5 mps 687 mmHg 25%
    18:00 +32°C° 0 mm 7 mps 687 mmHg 29%
    19:00 +29°C° 0.9 mm 6 mps 688 mmHg 37%
    20:00 +27°C° 0.9 mm 4 mps 688 mmHg 44%
    21:00 +25°C° 0.9 mm 3 mps 689 mmHg 51%
    22:00 +25°C° 0.1 mm 2 mps 689 mmHg 53%
    23:00 +24°C° 0.1 mm 2 mps 689 mmHg 54%

    10 June, Wednesday

    Time Temperature Precipitation Wind Pressure Humidity
    00:00 +24°C° 0.1 mm 1 mps 689 mmHg 56%
    01:00 +23°C° 0 mm 1 mps 688 mmHg 57%
    02:00 +23°C° 0 mm 1 mps 688 mmHg 59%
    03:00 +23°C° 0 mm 1 mps 688 mmHg 60%
    04:00 +23°C° 0 mm 1 mps 688 mmHg 59%
    05:00 +23°C° 0 mm 1 mps 688 mmHg 59%
    06:00 +23°C° 0 mm 1 mps 688 mmHg 58%
    07:00 +24°C° 0 mm 1 mps 688 mmHg 53%
    08:00 +25°C° 0 mm 1 mps 689 mmHg 49%
    09:00 +26°C° 0 mm 1 mps 689 mmHg 44%
    10:00 +28°C° 0 mm 1 mps 689 mmHg 40%
    11:00 +29°C° 0 mm 1 mps 689 mmHg 35%
    12:00 +31°C° 0 mm 1 mps 689 mmHg 31%
    13:00 +32°C° 0 mm 1 mps 689 mmHg 28%
    14:00 +33°C° 0 mm 1 mps 689 mmHg 25%
    15:00 +34°C° 0 mm 1 mps 689 mmHg 21%
    16:00 +35°C° 0 mm 3 mps 689 mmHg 22%
    17:00 +34°C° 0 mm 4 mps 689 mmHg 23%
    18:00 +34°C° 0 mm 5 mps 689 mmHg 24%
    19:00 +32°C° 0.1 mm 4 mps 689 mmHg 29%
    20:00 +29°C° 0.1 mm 3 mps 689 mmHg 34%
    21:00 +27°C° 0.1 mm 1 mps 689 mmHg 39%
    22:00 +27°C° 0 mm 1 mps 689 mmHg 41%
    23:00 +27°C° 0 mm 1 mps 689 mmHg 42%

    11 June, Thursday

    Time Temperature Precipitation Wind Pressure Humidity
    00:00 +26°C° 0 mm 1 mps 689 mmHg 44%
    01:00 +25°C° 0 mm 1 mps 689 mmHg 46%
    02:00 +25°C° 0 mm 1 mps 688 mmHg 48%
    03:00 +24°C° 0 mm 1 mps 688 mmHg 50%
    04:00 +25°C° 0 mm 1 mps 688 mmHg 48%
    05:00 +25°C° 0 mm 1 mps 688 mmHg 46%
    06:00 +26°C° 0 mm 1 mps 688 mmHg 44%
    07:00 +27°C° 0 mm 1 mps 688 mmHg 40%
    08:00 +28°C° 0 mm 1 mps 688 mmHg 36%
    09:00 +29°C° 0 mm 1 mps 688 mmHg 32%
    10:00 +31°C° 0 mm 2 mps 688 mmHg 29%
    11:00 +32°C° 0 mm 2 mps 688 mmHg 25%
    12:00 +35°C° 0 mm 2 mps 688 mmHg 22%
    13:00 +36°C° 0 mm 3 mps 688 mmHg 20%
    14:00 +36°C° 0 mm 4 mps 688 mmHg 18%
    15:00 +37°C° 0 mm 5 mps 688 mmHg 17%
    16:00 +34°C° 0.4 mm 5 mps 688 mmHg 24%
    17:00 +32°C° 0.4 mm 5 mps 688 mmHg 31%
    18:00 +28°C° 0.4 mm 5 mps 688 mmHg 38%
    19:00 +26°C° 0.6 mm 4 mps 688 mmHg 42%
    20:00 +25°C° 0.6 mm 3 mps 688 mmHg 47%
    21:00 +24°C° 0.6 mm 3 mps 688 mmHg 51%
    22:00 +24°C° 0 mm 3 mps 688 mmHg 51%
    23:00 +24°C° 0 mm 2 mps 688 mmHg 52%
    Show more